Theta_e
311 310 308 309 310 312 311 310 310 309 310 311 311 311 312 314 312 311 311 312 312 314 315 311 311 312 313 314 316 318 318 319 321 321 319 321 319 318 321 320 319 318 317 317 315 315 312 313 316 318 319 318 322 320 322 326 327 327 328 328 328 328 328
309 311 312 313 311 311 310 308 309 308 308 309 310 311 311 313 316 311 310 311 311 313 315 311 310 310 309 310 312 314 316 316 319 319 318 315 315 318 319 319 318 316 316 316 316 316 311 310 310 310 311 316 316 314 317 324 326 326 326 327 327 325 323
312 310 310 309 309 308 309 307 307 307 308 308 308 309 310 310 310 311 309 310 310 313 314 309 309 310 309 310 309 310 310 310 310 313 314 311 316 318 318 316 315 312 311 312 311 313 312 311 310 307 309 310 308 311 316 321 321 321 319 318 316 316 316
310 311 310 308 307 308 308 306 306 306 306 307 309 309 309 310 311 314 310 311 314 316 312 309 309 309 308 309 308 309 308 308 308 308 310 312 313 314 312 312 312 309 310 310 308 310 313 311 309 308 307 307 307 306 309 313 312 310 310 311 311 310 312
312 312 311 310 308 308 307 306 305 306 306 306 306 308 309 310 311 310 312 310 311 309 309 309 309 309 309 308 308 308 307 307 308 308 306 306 306 306 306 306 306 307 307 307 308 307 309 310 309 306 307 308 305 306 307 310 310 308 308 308 309 310 310
313 313 312 310 308 308 307 306 305 306 305 307 306 307 308 307 309 308 309 310 310 311 309 308 308 308 308 308 308 307 307 306 306 306 306 305 306 307 306 305 306 306 306 305 305 305 304 305 305 304 304 305 305 305 306 306 306 308 308 308 308 309 309
313 313 312 311 309 308 307 307 306 307 306 306 306 307 307 308 308 309 309 308 309 309 309 308 308 309 308 308 308 307 307 306 306 306 305 305 305 304 306 306 306 306 306 306 306 306 305 305 304 303 303 302 304 304 305 305 306 306 307 308 308 309 309
314 314 313 313 311 309 307 307 306 305 307 306 306 307 309 307 308 307 309 308 308 309 309 310 310 309 310 309 308 307 307 306 306 306 305 306 305 305 305 306 306 306 306 306 306 306 306 306 306 303 301 302 302 302 303 303 304 305 305 308 308 308 309
315 314 313 314 312 311 309 308 306 305 306 307 306 308 308 308 307 307 308 306 307 307 309 309 308 308 308 308 307 308 308 309 306 305 304 304 303 303 303 304 305 304 305 305 306 306 306 306 305 303 301 300 301 299 300 301 303 303 305 305 306 308 308
314 313 313 313 313 311 310 309 307 306 306 306 308 309 307 307 307 307 307 307 306 307 308 309 308 307 307 308 307 307 307 307 308 306 305 305 303 303 304 304 305 305 305 306 306 305 305 305 305 305 305 304 300 300 298 298 300 302 304 304 303 305 307
314 314 314 314 313 312 311 311 309 308 308 309 310 311 308 308 308 315 307 308 306 307 308 308 308 307 307 306 306 307 307 308 308 306 305 305 305 306 306 304 305 305 304 305 306 306 305 305 305 305 304 303 304 301 298 297 299 303 304 305 305 303 305
315 315 315 315 314 313 312 311 311 310 309 309 311 310 308 309 309 309 307 308 307 308 307 307 308 307 306 306 308 307 306 307 307 306 304 306 306 307 306 304 303 304 304 304 304 304 305 305 304 304 304 304 303 304 301 298 298 300 305 303 304 304 304
315 315 315 315 314 313 313 313 312 311 310 311 310 309 309 309 309 309 308 308 308 307 307 307 307 307 306 306 307 307 307 306 307 307 307 306 306 305 305 304 304 304 303 304 304 303 304 304 305 304 304 304 302 302 303 300 300 300 303 304 303 303 304
313 314 315 315 315 314 314 314 313 313 311 310 310 310 310 310 310 310 309 310 310 309 309 308 307 307 307 307 307 307 306 306 307 306 307 307 306 305 305 304 303 304 303 304 303 303 302 302 303 303 303 303 302 303 303 301 300 300 302 302 304 302 303
313 314 314 314 314 312 313 313 313 312 311 311 311 311 311 311 312 312 311 311 310 309 309 308 307 307 308 307 307 307 306 305 306 305 306 306 306 305 304 304 303 304 302 303 303 302 301 301 301 301 301 302 301 301 302 302 300 299 297 301 301 301 300
313 314 314 314 313 313 313 313 314 313 312 311 312 312 312 312 313 313 313 312 311 310 311 311 310 310 308 307 307 307 308 306 306 306 306 306 306 304 303 305 304 304 303 303 303 302 302 301 301 300 300 300 299 300 300 300 299 296 295 296 299 298 299
312 312 312 312 313 313 314 313 314 314 314 313 313 313 314 315 314 313 313 312 312 311 310 312 312 311 310 308 307 308 307 307 307 307 307 307 306 306 305 304 304 304 304 303 302 301 301 301 301 300 299 299 299 298 299 299 299 299 297 295 296 297 298
311 310 311 312 312 313 314 313 314 314 315 315 315 314 315 315 314 313 313 313 313 312 312 313 313 313 312 310 309 308 307 308 308 308 308 308 308 307 307 306 306 305 304 304 302 301 301 300 299 299 298 297 297 298 299 298 297 296 295 295 297 298 297
310 310 310 311 311 313 313 314 314 314 315 314 314 314 314 314 314 314 314 314 313 313 313 313 314 314 314 313 311 309 308 308 308 308 308 308 309 308 308 308 306 306 304 304 303 302 301 300 297 297 296 296 296 297 297 297 297 296 296 295 297 298 297
310 310 310 310 311 311 311 310 312 312 312 313 313 312 313 313 312 313 314 314 314 314 314 314 314 314 314 313 313 311 309 308 308 308 308 307 308 308 308 308 307 306 305 305 305 303 302 301 299 297 297 296 295 297 296 296 296 296 296 296 295 295 296
308 309 309 311 311 310 310 310 311 311 311 311 313 312 312 313 312 312 313 313 313 313 313 313 313 313 314 313 313 312 311 310 309 308 308 308 308 308 308 308 308 307 307 307 307 306 305 303 302 300 298 297 296 296 295 295 295 295 296 296 297 296 294
308 309 308 308 308 309 310 310 310 310 310 310 311 311 312 311 310 311 311 311 311 311 312 312 313 313 313 313 312 312 311 311 310 310 309 308 308 308 308 308 308 307 309 310 306 306 305 304 302 299 298 299 298 297 295 295 295 294 295 296 296 294 294
308 307 307 308 309 309 309 308 308 308 308 309 309 309 310 309 310 309 310 309 309 309 310 312 312 307 307 313 312 312 312 312 311 311 310 310 310 309 309 309 309 311 309 308 305 301 299 300 302 302 299 299 299 297 296 296 295 295 296 297 296 296 295
305 306 307 307 307 307 308 308 308 307 308 309 309 309 309 308 308 308 309 308 308 308 310 311 305 301 298 299 308 310 311 312 311 311 311 310 311 311 310 309 309 309 309 307 306 300 297 296 296 296 297 298 299 298 296 296 296 295 297 297 294 294 294
302 302 304 305 306 307 306 307 307 307 307 307 308 307 307 308 308 307 307 307 307 308 308 305 296 295 295 295 298 307 309 310 310 310 310 310 310 310 310 310 309 309 309 309 308 307 300 296 294 294 294 294 293 292 295 298 296 294 295 296 295 294 294
298 298 299 300 302 305 306 305 305 304 305 304 305 305 305 303 305 304 305 305 305 305 305 298 293 294 294 293 293 298 306 308 308 309 309 309 309 309 309 308 308 308 308 310 310 304 302 298 294 293 294 294 293 292 289 290 294 298 296 296 296 294 294
297 296 296 297 299 300 301 300 299 299 300 300 301 301 301 303 301 301 302 303 303 302 303 294 290 291 292 292 292 294 305 306 307 308 308 307 307 307 306 306 306 306 305 308 303 301 299 299 298 299 298 298 298 296 292 291 291 292 295 297 296 295 294
296 296 296 296 296 296 296 295 297 296 296 297 297 298 298 297 297 296 295 296 296 298 299 292 291 291 290 291 291 293 302 304 306 305 304 303 304 305 305 304 304 304 302 302 301 300 299 299 299 299 298 296 295 295 296 297 297 296 295 294 295 295 294
297 297 297 296 296 296 295 295 296 296 295 294 294 295 294 293 293 294 293 292 296 298 295 292 291 292 292 292 292 299 301 304 304 299 296 297 298 299 300 302 302 301 300 300 298 295 297 300 299 297 295 294 293 293 294 294 293 294 296 295 295 295 295
295 295 294 295 295 295 295 295 294 294 295 294 295 294 292 292 291 291 293 292 293 294 292 292 291 291 292 292 296 301 299 296 295 295 295 295 296 299 300 299 299 297 296 295 293 292 293 296 298 296 295 294 294 294 293 293 292 291 291 291 291 291 290
296 295 296 297 296 295 295 295 296 297 297 296 295 293 292 291 290 291 291 291 293 294 293 291 292 291 293 293 296 296 296 295 293 293 292 293 294 296 300 301 297 295 295 294 291 291 292 296 297 296 295 293 292 291 290 290 292 291 290 290 290 289 289
296 296 297 296 297 296 297 297 296 293 294 293 292 291 293 290 289 288 289 291 296 290 289 291 292 292 293 294 295 296 296 294 292 291 292 292 292 293 294 295 296 295 295 292 289 290 291 294 295 294 293 293 292 290 290 290 290 290 290 290 289 290 290
297 297 297 296 296 297 297 295 294 293 290 289 290 290 291 288 288 288 287 287 288 288 289 290 292 291 293 293 294 296 295 294 292 291 292 292 292 293 293 293 293 289 289 289 289 289 289 290 293 293 293 292 291 289 289 289 290 289 288 289 288 288 289
297 296 296 296 296 296 295 295 293 293 292 290 290 288 288 287 287 286 286 286 287 288 291 290 290 290 292 293 293 293 293 292 291 292 292 292 292 291 291 291 292 290 289 289 289 289 289 289 290 292 291 290 290 290 289 289 290 289 289 289 289 289 289
297 297 295 296 295 294 293 292 293 291 290 291 290 288 288 288 286 287 285 286 288 286 289 294 290 291 291 291 291 291 292 292 292 292 292 291 291 291 291 291 291 290 288 288 288 288 288 289 290 292 290 288 287 287 290 290 289 289 288 288 288 288 288
295 295 295 294 295 294 292 292 291 291 291 290 290 288 287 286 287 288 288 287 285 286 286 289 291 290 290 290 290 290 290 291 290 294 292 291 291 291 292 292 292 289 288 288 288 288 288 288 289 289 287 287 287 287 289 289 289 288 287 287 287 287 287
294 294 296 295 294 294 292 291 291 291 291 292 290 289 287 286 287 289 289 288 288 286 286 285 289 290 290 289 289 289 290 290 291 293 293 291 291 291 291 291 291 288 288 288 288 288 288 288 288 287 288 288 287 288 289 288 287 287 286 286 286 286 286
Wind_Speed
6 5 3 2 0 2 5 3 4 4 4 4 5 4 4 4 4 4 3 4 4 3 4 5 4 3 4 3 2 2 2 2 3 3 2 3 2 1 2 2 2 3 3 2 3 3 4 3 1 2 3 6 5 5 3 4 6 6 6 4 3 4 2
4 5 3 2 3 2 5 3 4 4 4 4 4 4 4 3 3 4 4 4 4 3 3 5 4 5 5 4 4 4 3 2 2 2 3 3 2 3 3 2 2 2 2 2 2 3 3 3 1 2 3 2 6 9 7 4 5 6 6 5 5 6 6
5 4 4 4 2 2 5 3 3 5 4 4 4 3 4 4 4 3 4 5 4 3 4 5 5 5 4 5 4 4 4 5 3 3 2 2 3 2 1 2 1 1 2 2 4 4 6 6 2 3 4 5 7 6 6 7 8 7 6 6 6 7 7
7 7 6 4 3 3 5 3 3 3 4 4 3 3 3 3 3 3 4 4 3 3 4 4 4 5 4 5 5 6 6 6 5 5 6 4 3 3 3 1 1 2 1 2 3 1 3 3 6 6 4 4 4 8 7 6 7 6 5 5 6 6 5
9 8 8 7 5 5 5 5 1 3 3 3 3 4 3 2 3 4 3 4 4 4 4 3 4 5 5 5 5 5 5 5 5 6 6 6 5 5 5 3 4 4 5 5 2 2 4 3 6 5 6 0 4 4 0 4 6 7 8 8 7 7 7
7 8 8 7 5 6 5 5 4 4 3 4 2 4 2 2 2 5 4 4 3 2 3 3 3 4 4 5 5 6 5 6 5 6 6 5 5 6 5 4 5 5 5 1 3 4 4 5 5 5 0 2 4 2 3 3 4 5 6 7 7 7 7
7 7 6 7 6 5 5 5 5 5 5 5 3 3 1 1 2 2 2 3 2 2 2 3 3 3 5 6 5 6 6 5 5 6 6 5 5 5 4 6 5 5 4 3 4 5 4 5 4 5 4 3 3 3 2 4 4 2 6 6 6 6 6
7 6 5 5 6 6 4 5 3 2 4 3 4 2 2 2 2 3 3 3 3 2 2 2 2 3 4 5 5 6 5 5 6 6 5 5 6 5 5 5 5 5 5 4 5 5 4 5 5 4 4 7 4 4 4 3 4 7 1 3 6 7 7
4 4 4 4 5 5 6 5 4 3 1 1 1 1 2 2 2 3 3 3 2 2 1 1 2 2 2 5 5 5 6 3 6 7 5 6 6 6 5 4 6 5 4 4 5 5 5 4 5 4 5 5 7 4 2 5 5 5 5 4 5 7 7
6 7 7 6 5 4 5 5 4 4 2 1 1 1 2 2 2 2 2 3 2 2 1 1 2 2 2 2 3 4 6 4 6 7 5 6 5 6 5 5 6 5 4 4 5 5 5 5 4 4 4 4 5 7 3 4 4 3 5 5 4 6 6
8 7 6 7 6 5 4 5 4 4 4 2 2 1 1 2 1 1 2 1 2 2 1 1 2 2 2 3 3 3 2 2 5 4 5 6 6 5 5 5 4 4 2 4 4 4 5 5 5 5 5 4 4 6 4 5 4 1 3 4 4 4 6
6 6 5 5 5 5 5 5 6 4 4 3 3 2 2 1 1 1 1 1 1 1 1 1 1 2 2 2 2 2 3 3 3 3 1 4 4 5 5 5 4 5 4 5 4 4 4 5 5 5 5 5 5 6 6 5 5 1 0 4 4 3 4
5 6 6 7 6 6 5 5 4 4 3 3 3 2 2 2 2 2 0 0 1 1 1 2 1 1 2 1 1 0 1 2 2 2 2 2 2 4 5 5 4 5 5 5 5 5 5 5 5 6 6 6 5 4 6 6 6 4 1 2 2 4 5
3 4 5 4 5 5 3 3 2 1 5 5 3 1 0 1 1 1 1 1 1 1 0 0 1 2 1 1 0 0 0 1 1 1 1 1 1 3 4 5 5 4 4 6 5 5 6 5 5 6 5 6 6 4 5 5 5 4 1 0 1 3 4
3 4 6 5 4 3 2 2 2 2 6 4 4 2 3 5 5 5 3 4 3 2 4 6 7 6 3 2 2 1 3 3 2 2 1 2 1 1 2 4 4 4 3 6 5 5 5 5 5 6 4 5 5 4 1 4 3 3 2 1 3 3 3
5 5 5 4 4 5 5 5 4 3 3 5 4 5 4 2 1 1 2 1 1 5 5 5 2 2 4 6 6 4 3 4 4 4 4 4 3 0 2 3 4 4 3 6 5 5 5 6 4 6 5 4 6 4 3 4 4 4 5 2 1 2 3
6 6 6 6 7 6 7 6 6 5 4 4 5 4 5 5 2 1 1 0 3 4 3 5 6 5 2 1 5 6 4 4 5 5 5 5 4 4 4 4 4 3 3 6 5 5 4 5 6 6 6 4 5 5 4 5 5 4 2 4 2 2 1
6 6 7 6 6 5 5 6 5 5 5 3 3 3 1 2 3 3 2 1 2 4 4 1 2 1 2 5 5 5 6 5 6 6 6 5 4 5 5 6 5 4 4 5 4 5 4 6 5 6 6 4 4 4 3 4 5 4 5 5 1 1 1
7 7 8 7 7 6 6 6 5 4 5 5 5 4 3 2 4 6 5 5 4 4 4 4 4 4 4 3 4 5 6 6 6 6 6 6 6 6 7 7 6 6 6 6 6 5 5 7 5 6 7 5 4 4 4 4 5 5 6 4 3 2 0
6 7 8 8 6 6 6 6 5 5 4 6 4 2 3 4 1 4 7 6 6 6 6 4 4 4 4 5 6 4 5 6 6 5 6 6 6 6 6 6 6 7 7 7 7 8 7 7 6 7 6 7 5 6 5 4 5 6 5 4 1 1 1
4 6 7 5 4 4 4 5 4 4 3 3 4 6 5 4 5 5 6 4 3 3 3 3 4 5 5 5 6 6 5 6 7 6 6 6 6 6 7 6 7 7 8 8 8 7 8 7 5 5 3 4 5 6 3 2 4 4 3 3 2 2 1
4 5 6 5 3 3 5 4 5 5 5 4 3 3 3 4 4 4 3 3 4 4 4 5 5 5 5 6 5 6 6 7 7 6 6 5 5 5 6 6 7 7 8 8 10 10 10 8 7 6 5 6 5 5 4 4 4 3 2 2 2 1 1
5 5 6 6 6 5 4 2 3 4 4 3 3 3 2 2 3 3 4 4 4 4 5 4 6 9 7 5 5 5 5 6 6 5 5 5 6 6 7 7 7 9 11 12 11 11 11 12 9 7 8 7 7 6 4 4 4 3 3 2 0 0 3
4 5 4 4 2 3 2 1 1 1 1 1 1 0 1 2 2 2 4 4 3 3 4 4 4 5 6 6 5 5 5 5 5 5 5 6 7 7 6 6 6 7 8 9 10 7 5 8 10 10 11 9 7 7 6 4 3 3 3 2 2 2 1
2 3 5 5 5 4 3 3 2 2 2 1 0 1 1 3 3 2 2 2 3 4 4 3 6 5 5 3 3 4 4 5 5 5 5 6 6 6 6 5 5 5 6 7 6 6 8 8 8 9 10 8 9 8 4 4 4 2 2 3 2 2 1
3 3 2 3 4 4 4 3 2 2 2 2 3 2 2 1 2 1 2 3 4 4 4 6 7 7 7 5 2 4 4 5 5 6 6 5 5 6 5 5 5 5 5 7 6 5 6 6 6 10 11 11 10 9 9 8 4 4 5 4 4 3 4
6 4 4 4 4 5 5 5 4 3 4 4 4 3 2 1 1 1 1 2 3 2 1 4 5 5 5 6 5 4 4 4 4 5 5 4 4 5 5 5 5 5 4 4 4 6 7 8 7 7 6 5 5 6 7 8 8 6 4 4 5 4 3
5 4 5 5 5 5 4 4 4 3 4 4 6 6 6 5 3 3 1 1 1 3 2 4 6 6 5 4 4 2 2 2 2 2 2 3 4 5 5 5 5 5 3 3 4 7 8 8 8 6 6 5 4 4 4 4 3 4 4 3 3 4 4
4 4 5 5 6 5 4 4 4 3 4 4 4 5 4 5 5 4 3 3 3 3 4 8 9 9 8 6 3 2 1 1 0 2 4 4 4 3 3 2 2 2 2 3 3 7 7 7 8 7 6 5 4 4 4 3 4 4 4 4 4 4 3
5 5 5 6 5 4 4 3 3 2 5 3 3 4 4 4 3 3 3 3 4 2 1 4 7 8 7 3 3 3 3 4 4 5 5 5 5 5 4 4 4 5 5 4 4 8 9 9 8 7 6 5 3 4 3 2 5 7 6 6 5 5 3
6 6 6 6 6 5 5 4 4 3 6 4 3 3 3 4 4 3 2 2 0 1 0 2 4 4 2 1 3 4 4 5 5 5 5 6 5 6 7 11 7 6 7 5 6 9 8 8 7 6 6 6 5 4 3 1 2 3 4 4 5 2 1
4 5 6 6 6 6 6 6 5 4 5 5 4 3 3 4 3 3 2 1 2 1 2 3 5 3 3 5 5 4 5 5 5 4 5 6 6 6 6 8 9 8 7 7 10 9 9 7 7 5 5 5 4 3 2 2 3 3 2 2 1 3 0
5 5 5 4 3 5 5 5 6 6 4 4 5 4 2 3 4 1 2 3 3 3 3 3 4 4 3 6 7 5 4 5 5 5 5 5 6 6 6 5 7 10 11 11 11 12 11 10 6 4 4 4 3 3 2 2 2 2 2 1 1 1 2
5 3 4 5 4 3 3 5 5 5 6 5 6 5 4 4 4 3 3 3 3 3 2 3 4 5 3 6 9 8 5 5 6 6 6 6 5 5 4 5 4 7 11 11 11 11 11 10 7 6 5 4 2 2 2 2 2 3 2 1 2 2 3
5 6 4 4 5 4 2 3 5 6 6 7 6 5 3 3 4 2 2 3 3 3 4 4 3 4 2 6 7 9 6 6 7 8 6 4 4 5 5 4 4 5 9 9 9 9 9 9 9 5 5 5 5 4 3 2 1 2 1 2 2 2 3
6 4 5 5 6 6 4 5 4 5 6 5 6 5 4 4 3 2 1 1 2 2 3 3 3 2 3 1 4 6 9 8 7 6 8 7 5 5 3 4 4 6 9 9 9 10 9 9 7 5 7 7 7 6 4 2 2 2 2 2 2 3 3
4 3 5 6 5 7 6 4 5 5 6 7 6 5 4 4 3 3 4 3 0 2 3 3 3 5 4 5 4 7 9 9 8 5 6 7 6 5 5 4 4 8 10 11 11 11 11 9 8 10 10 9 7 5 3 3 3 3 3 3 3 3 4
Wind_Direction
150 156 146 132 241 121 88 75 75 52 59 78 105 98 103 110 110 103 97 93 83 75 85 86 100 90 85 61 82 133 138 157 154 153 139 121 151 99 75 73 48 42 36 24 127 152 150 149 308 346 40 10 27 39 15 22 40 37 46 80 62 77 123
119 120 116 88 103 85 91 56 76 70 58 56 67 96 94 98 97 112 106 94 89 82 90 87 70 68 76 79 74 99 121 109 128 154 147 157 153 157 123 62 62 38 48 24 19 51 96 111 1 356 345 338 60 18 6 33 56 35 30 19 33 41 26
122 103 110 112 93 92 101 68 79 75 73 65 56 62 74 67 83 90 93 93 97 92 77 90 85 72 65 71 67 74 77 91 46 102 129 142 138 117 40 130 122 54 3 24 34 44 47 49 79 51 15 38 49 359 16 35 55 51 45 35 35 28 30
148 140 133 124 114 106 117 94 77 78 69 73 69 64 70 69 84 81 92 96 80 80 91 94 101 107 99 91 78 68 60 67 69 78 79 65 65 57 47 55 107 109 122 99 64 46 107 127 81 40 19 4 84 78 29 38 52 50 48 44 35 32 28
155 156 155 163 167 152 144 134 120 88 63 67 65 83 69 62 92 82 81 82 93 93 93 101 106 109 110 103 89 85 79 73 79 82 83 86 81 77 59 59 67 72 58 66 95 103 110 131 115 130 109 259 64 61 155 30 47 42 36 33 30 28 24
161 160 159 156 168 153 150 137 137 132 113 98 77 93 97 89 102 115 110 111 99 100 113 99 100 102 103 92 95 89 91 93 104 105 94 100 108 93 96 77 84 66 62 38 103 105 70 88 129 123 257 295 136 113 7 12 37 30 36 37 28 28 28
166 164 164 156 162 154 153 157 161 163 157 165 151 155 157 64 43 51 91 80 64 73 93 109 117 112 97 96 93 91 92 110 103 94 100 103 85 95 113 88 70 81 80 76 98 87 100 93 77 116 135 38 42 83 1 25 344 60 33 30 25 32 31
163 166 160 153 152 150 154 147 163 166 163 179 166 162 83 72 59 63 67 78 63 49 40 64 68 85 100 103 104 108 111 120 99 101 101 104 97 96 80 99 100 72 74 70 78 76 95 89 114 155 135 123 69 41 56 22 40 49 307 22 21 30 28
149 139 139 139 147 151 152 149 167 176 223 172 135 81 72 92 81 79 77 75 72 73 57 44 48 55 79 111 117 117 115 130 105 98 111 96 94 89 91 81 75 64 55 67 73 84 77 102 104 105 109 109 128 106 27 56 29 47 10 45 33 37 22
155 167 174 169 157 151 147 149 151 180 162 127 103 64 96 68 78 86 83 83 73 77 97 72 65 55 19 26 76 113 121 124 113 127 129 108 119 114 95 89 106 95 57 71 74 77 92 86 81 83 82 124 149 132 134 78 14 66 28 9 48 17 22
174 179 176 163 148 147 147 145 133 151 182 154 125 115 115 105 72 86 109 97 78 80 111 96 81 60 49 51 19 11 27 87 113 114 126 130 134 120 114 92 89 84 29 72 73 63 75 84 79 72 78 78 100 123 148 121 104 270 64 25 44 15 8
181 173 157 142 144 158 168 162 179 169 136 144 143 140 123 128 136 144 129 122 90 83 72 80 84 85 78 87 40 16 359 3 45 67 236 121 152 118 110 97 96 91 99 93 79 68 64 81 89 87 73 66 52 95 108 123 114 353 43 43 5 11 8
185 167 156 152 159 176 178 177 174 169 157 137 133 138 152 164 185 206 78 59 34 33 57 57 65 67 63 64 29 5 348 22 74 75 40 6 96 108 110 100 94 109 108 95 82 78 82 77 93 90 83 80 66 70 87 84 95 102 317 61 15 336 13
172 139 134 143 164 177 164 156 128 99 93 64 46 27 4 262 211 180 153 176 179 158 76 35 73 125 135 129 356 95 264 9 330 324 88 80 4 113 121 123 129 108 110 94 94 94 86 90 84 78 84 86 78 60 96 103 104 109 76 332 333 357 347
142 136 138 142 151 141 99 80 86 53 70 79 89 49 8 353 356 360 348 338 346 18 34 32 14 8 343 286 265 223 202 187 203 293 342 253 305 346 113 126 130 103 82 107 111 102 112 103 95 84 58 88 87 75 125 116 105 123 131 307 23 354 8
149 144 133 133 115 94 88 84 85 100 111 116 117 105 95 79 332 339 347 22 69 73 80 83 82 14 321 305 288 267 217 198 197 193 214 237 236 204 126 151 175 144 135 100 102 116 121 110 103 99 102 98 102 92 69 109 125 113 97 119 194 63 26
146 148 138 120 112 131 132 130 138 145 153 141 136 139 167 198 192 207 224 115 87 111 148 167 180 190 172 282 287 279 262 243 230 209 210 218 201 194 194 186 223 194 147 121 133 124 118 119 118 120 119 120 119 123 111 99 105 133 160 98 18 88 20
142 138 125 125 124 117 118 130 142 153 157 169 127 118 342 6 323 318 290 213 173 168 198 265 323 15 180 212 231 266 266 238 225 220 215 211 207 202 200 208 202 188 171 138 161 143 150 137 140 132 133 146 134 142 108 105 105 107 122 108 133 203 312
145 139 129 115 114 122 124 121 124 137 146 123 102 128 187 221 223 232 230 231 234 199 195 191 213 246 269 265 222 232 248 245 239 226 222 215 206 202 209 215 204 181 182 178 185 176 168 158 152 148 148 157 149 120 118 102 108 101 102 116 127 102 355
138 133 119 120 128 140 133 139 151 153 152 130 129 185 163 147 133 258 251 229 232 234 229 217 212 219 230 264 279 257 247 248 247 234 227 220 218 216 224 220 204 191 195 196 184 185 179 177 174 174 164 159 150 139 147 169 129 116 126 133 109 100 132
123 108 111 117 153 168 152 169 153 153 156 137 138 168 189 177 192 207 242 239 246 241 243 236 232 248 245 238 248 260 260 252 247 244 240 232 222 222 220 221 216 206 207 205 197 191 182 179 168 151 166 139 147 115 126 132 83 83 110 109 107 143 49
106 112 108 127 157 189 198 176 131 135 140 136 156 209 180 143 167 203 234 247 252 239 230 245 249 243 253 263 254 254 243 235 236 241 241 244 244 240 233 226 224 220 218 219 210 196 193 174 164 167 169 156 138 131 146 109 114 107 69 79 94 70 88
132 122 128 149 173 185 200 173 147 136 135 153 166 202 236 151 168 202 231 238 227 225 229 233 237 237 230 232 238 236 234 234 233 235 242 246 243 231 233 230 235 229 228 231 226 215 202 189 185 169 167 165 154 140 136 128 124 135 132 134 146 102 1
131 129 130 135 176 156 124 72 54 62 87 84 107 54 27 329 284 234 235 249 260 255 260 262 274 274 271 263 253 242 238 247 233 237 243 249 260 260 248 237 245 242 240 240 239 236 214 196 177 170 159 158 159 150 141 131 176 163 150 141 129 115 107
131 135 140 149 150 144 131 128 120 73 42 46 66 42 305 262 269 278 298 315 298 278 285 340 334 310 292 275 244 251 250 253 248 242 241 243 252 261 267 265 252 247 242 239 219 196 188 190 181 159 140 117 92 71 87 152 150 122 157 146 155 162 146
106 89 102 116 115 107 109 101 103 123 179 148 127 159 199 254 309 359 21 355 329 334 319 356 360 350 331 320 249 224 241 239 247 248 240 246 257 264 269 271 271 253 253 237 209 167 146 140 113 110 102 93 81 87 87 81 93 151 160 144 147 165 192
104 103 96 88 99 120 127 144 157 153 129 114 113 90 64 48 10 8 339 249 252 283 312 7 351 337 322 310 299 245 246 239 239 252 257 258 261 263 258 255 262 266 240 182 150 152 145 137 130 107 84 68 78 76 77 87 93 97 109 141 149 168 195
86 76 75 82 83 76 87 90 85 86 106 128 138 147 153 148 153 150 142 202 308 9 18 352 340 324 314 310 312 236 263 251 255 275 304 287 268 262 256 244 235 234 191 157 154 155 142 134 118 103 95 90 82 73 69 80 106 119 102 106 125 126 141
84 81 80 75 74 69 60 59 78 44 50 45 59 89 69 80 95 71 36 40 49 6 339 347 344 333 331 355 54 59 38 17 68 49 31 17 5 346 315 258 174 108 89 87 113 137 133 127 116 114 111 114 102 86 64 17 41 78 84 88 101 119 143
105 103 104 95 101 116 112 92 92 98 82 65 77 65 65 65 46 76 97 122 135 183 275 317 323 316 324 39 82 77 86 69 59 54 34 14 9 16 26 56 77 85 70 58 77 111 120 117 107 113 117 110 106 108 112 76 55 63 70 74 76 82 96
124 130 118 118 124 132 127 122 143 157 134 136 105 105 113 77 44 34 43 32 354 116 335 288 321 305 280 171 107 103 96 90 68 60 49 31 23 27 46 68 83 83 85 70 90 96 102 105 102 106 113 118 115 112 129 106 85 57 45 80 86 38 205
132 130 127 149 142 134 134 140 148 129 122 116 132 149 141 114 77 24 2 330 334 26 316 318 337 323 160 130 112 107 102 94 82 54 71 59 40 48 46 48 63 80 85 91 81 77 76 84 88 99 115 109 110 96 76 72 92 106 55 65 24 17 47
153 146 150 154 149 137 146 128 135 122 91 89 124 124 121 106 109 46 341 1 349 352 348 326 326 318 153 131 129 123 122 113 115 104 83 86 77 57 51 57 57 71 77 72 65 60 53 59 82 67 65 76 100 85 115 118 136 133 100 105 256 240 280
163 198 186 169 157 137 138 134 128 117 124 118 116 116 114 127 112 65 17 11 8 357 343 321 317 309 182 148 143 133 128 122 133 123 115 97 92 94 78 65 57 61 71 71 71 69 67 63 68 70 64 74 74 122 134 68 79 66 47 19 351 339 330
192 180 178 140 136 155 187 145 143 138 139 140 129 124 123 110 109 73 16 18 20 350 341 359 320 318 256 164 156 142 134 154 149 126 105 90 104 109 120 122 109 81 79 78 76 73 67 62 56 61 62 80 90 78 62 56 66 40 18 11 344 333 324
199 185 176 175 154 161 164 140 131 134 130 123 124 134 135 134 127 117 82 10 4 358 353 343 23 14 341 227 166 145 135 137 147 130 129 131 132 119 93 91 86 78 75 71 67 65 61 60 60 54 55 53 48 53 52 43 38 28 360 339 337 319 311
217 210 189 170 160 147 164 160 148 152 145 138 142 145 171 164 156 183 200 213 152 21 5 2 15 51 58 66 85 105 109 109 114 112 117 125 127 117 110 94 89 86 84 80 78 75 71 68 68 61 59 60 64 62 64 43 32 16 354 344 333 317 304